Home   Weather   Salinas   Past weeks

Flag for USA Past Weather in Salinas, California, USA — Yesterday and Last 2 Weeks

Now
87 °F

Sunny.


Feels Like: 84 °F
Forecast: 56 / 88 °F
Wind: 15 mph from Southeast

Location: Salinas Municipal Airport

Current Time: Sep 25, 2016 at 12:13:42 PM

Latest Report: Sep 25, 2016 at 11:53 AM


Visibility: 10 mi

Pressure: 30.04 "Hg

Humidity: 27%

Dew Point: 49 °F

Location of SalinasLocation

Past Weather in Salinas — Graph

°F

Salinas Temperature Yesterday

Maximum temperature yesterday: 83 °F (at 12:53 PM)
Minimum temperature yesterday: 50 °F (at 5:53 AM)
Average temperature yesterday: 64 °F

High & Low Weather Summary for the Past Weeks

 TemperatureHumidityPressure
High90 °F (Sep 18, 12:53 PM)100% (Sep 17, 3:53 AM)30.18 "Hg (Sep 17, 3:53 AM)
Low48 °F (Sep 14, 5:53 AM)22% (Sep 18, 12:53 PM)29.88 "Hg (Sep 13, 2:53 AM)
Average61 °F72%30.03 "Hg
* Reported Sep 10 10:53 AM — Sep 25 10:53 AM, Salinas, Weather by CustomWeather, © 2016

Note: Actual official high and low records may vary slightly from our data, if they occured in-between our weather recording intervals... More about our weather records

Advertising

Salinas Weather History for the Previous 24 Hours

Scroll right to see more
 ConditionsComfort  
Time TempWeatherWind HumidityBarometerVisibility
10:53 AM
Sun, Sep 25
79 °FSunny.13 mph39%30.06 "Hg10 mi
9:53 AM71 °FSunny.14 mph49%30.07 "Hg10 mi
8:53 AM65 °FSunny.15 mph56%30.06 "Hg10 mi
7:53 AM61 °FSunny.16 mph62%30.05 "Hg10 mi
6:53 AM59 °FClear.13 mph69%30.04 "Hg10 mi
5:53 AM56 °FClear.12 mph77%30.04 "Hg10 mi
4:53 AM56 °FClear.6 mph77%30.04 "Hg10 mi
3:53 AM55 °FClear.5 mph83%30.05 "Hg10 mi
2:53 AM57 °FClear.No wind78%30.06 "Hg10 mi
1:53 AM60 °FClear.No wind75%30.07 "Hg10 mi
12:53 AM59 °FClear.No wind78%30.08 "Hg10 mi
11:53 PM
Sat, Sep 24
59 °FClear.No wind78%30.07 "Hg10 mi
10:53 PM60 °FClear.No wind75%30.07 "Hg10 mi
9:53 PM67 °FClear.No wind61%30.07 "Hg10 mi
8:53 PM68 °FClear.3 mph59%30.07 "Hg10 mi
7:53 PM69 °FClear.7 mph57%30.06 "Hg10 mi
6:53 PM71 °FSunny.7 mph53%30.06 "Hg10 mi
5:53 PM73 °FSunny.8 mph53%30.06 "Hg10 mi
4:53 PM75 °FSunny.10 mph52%30.06 "Hg10 mi
3:53 PM75 °FSunny.8 mph48%30.07 "Hg10 mi
2:53 PM73 °FSunny.13 mph51%30.08 "Hg10 mi
1:53 PM75 °FSunny.18 mph47%30.08 "Hg10 mi
12:53 PM83 °FSunny.No wind27%30.09 "Hg10 mi
Weather by CustomWeather, © 2016

See weather overviewHow to use our weather pages